Regional Weather Roundup
Issued by NWS

Home | Current Version | Previous Version | Text Only | Print | Product List | Glossary Off
Versions: 1 2 3 4 5 6 7 8 9 10 11 12 13 14 15 16 17 18 19 20 21 22 23 24 25 26 27 28 29 30 31 32 33 34 35 36 37 38 39 40 41 42 43 44 45 46 47 48 49 50

000
ASUS43 KFSD 221202
RWRSD

WEATHER ROUNDUP FOR SOUTH DAKOTA
NATIONAL WEATHER SERVICE SIOUX FALLS SD
600 AM CST THU FEB 22 2018

NOTE: "FAIR" INDICATES FEW OR NO CLOUDS BELOW 12,000 FEET WITH NO
SIGNIFICANT WEATHER AND/OR OBSTRUCTIONS TO VISIBILITY.


SDZ001>005-009-010-012>017-221300-
NORTHWEST AND NORTH CENTRAL SOUTH DAKOTA

CITY           SKY/WX    TMP DP  RH WIND       PRES   REMARKS
BUFFALO          N/A     -5 -12  72 W3        30.05F
FAITH            N/A     -9 -14  78 CALM      30.20S
MOBRIDGE       FAIR      -7 -12  79 N5        30.26F WCI -18
$$

SDZ012>016-024>037-041>051-057-063-072>074-221300-
SOUTHWEST AND SOUTH CENTRAL SOUTH DAKOTA

CITY           SKY/WX    TMP DP  RH WIND       PRES   REMARKS
RAPID CTY ARPT FAIR      -5  -8  87 N7        30.11F WCI -19
PIERRE         FAIR       5   1  83 SE13      30.29F WCI -12
CUSTER         FAIR       8   2  76 CALM      29.98F
ELLSWORTH AFB  FAIR      -1  -4  87 CALM      30.11S
PHILIP         FAIR      -6  -9  86 CALM      30.21F
PINE RIDGE     FAIR      14   9  80 SW8       30.13F WCI   3
SPEARFISH        N/A      9   0  66 S10       30.07S WCI  -6
WINNER         FAIR      16  11  80 S9        30.29F WCI   4
$$

SDZ004>011-016>023-039-040-221300-
NORTHEAST SOUTH DAKOTA

CITY           SKY/WX    TMP DP  RH WIND       PRES   REMARKS
ABERDEEN       FAIR       3  -1  83 S8        30.39F WCI -10
WATERTOWN      FAIR       8   4  83 S13       30.40F WCI  -8
BROOKINGS      CLOUDY     9   5  84 SE7       30.43F WCI  -2
SISSETON         N/A      0  -5  79 S12       30.46R WCI -17
$$

SDZ017-020-022-023-036>040-048>070-221300-
SOUTHEAST SOUTH DAKOTA

CITY           SKY/WX    TMP DP  RH WIND       PRES   REMARKS
SIOUX FALLS    CLOUDY    16  11  80 E3        30.45F
HURON          CLOUDY    13   8  81 SE8       30.41F WCI   2
CHAMBERLAIN    CLOUDY    13  10  87 E8        30.34S WCI   1
MITCHELL       CLOUDY    17  11  77 SE12      30.42F WCI   4
YANKTON        FLURRIES  17  13  84 E7        30.44F WCI   8
$$

ABBREVIATIONS USED IN REMARKS
   TC - TEMPERATURE IN CELSIUS
  WCI - WIND CHILL INDEX
   HX - HEAT INDEX
  VSB - VISIBILITY




USA.gov is the U.S. government's official web portal to all federal, state and local government web resources and services.